This demonstration page uses our WeatherBlox Daily Observations layout. Learn more.

Left ArrowRight Arrow

38.20091, -84.87328

Hourly Observations for July 15, 2019

Temp ( °F °C ) Dew Point ( °F °C ) Humidity (%) Winds ( mph kmh ) Pressure ( in mb ) Visibility ( mi km ) Precip ( " mm )
12:53 am 00:53 Clear 73 22.8 67 19.4 81 81 SSW 6 9 30.09 1019 10 16 0.00 0.00
1:53 am 01:53 Clear 72 22.2 67 19.4 84 84 Calm 30.10 1019 10 16 0.00 0.00
2:53 am 02:53 Clear 73 22.8 68 20 84 84 Calm 30.09 1019 10 16 0.00 0.00
3:53 am 03:53 Clear 73 22.8 68 20 84 84 Calm 30.08 1019 10 16 0.00 0.00
4:53 am 04:53 Cloudy 74 23.3 68 20 82 82 Calm 30.09 1019 10 16 0.00 0.00
5:53 am 05:53 Clear 72 22.2 68 20 87 87 Calm 30.11 1020 10 16 0.00 0.00
6:53 am 06:53 Sunny 72 22.2 68 20 87 87 Calm 30.11 1020 10 16 0.00 0.00
7:53 am 07:53 Sunny 75 23.9 70 21.1 84 84 Calm 30.11 1020 10 16 0.00 0.00
8:53 am 08:53 Sunny 78 25.6 70 21.1 76 76 Calm 30.11 1020 10 16 0.00 0.00
9:53 am 09:53 Sunny 83 28.3 70 21.1 65 65 N 3 6 30.11 1020 10 16 0.00 0.00
11:53 am 11:53 Sunny 87 30.6 70 21.1 57 57 Calm 30.11 1020 10 16 0.00 0.00
12:53 pm 12:53 Mostly Cloudy 88 31.1 70 21.1 55 55 Calm 30.11 1020 10 16 0.00 0.00
1:53 pm 13:53 Mostly Sunny 90 32.2 70 21.1 52 52 WSW 8 13 30.09 1019 10 16 0.00 0.00
2:17 pm 14:17 Partly Cloudy with Nearby Thunderstorms 93 33.9 71 21.7 49 49 SW 14 22 30.06 1018 10 16 0.00 0.00
2:53 pm 14:53 Mostly Cloudy with Nearby Thunderstorms 82 27.8 67 19.4 60 60 NNE 10 17 30.11 1020 10 16 0.00 0.00
3:04 pm 15:04 Cloudy with Thunderstorms 76 24.4 68 20 77 77 ENE 15 24 30.09 1019 10 16 0.00 0.00
3:17 pm 15:17 Cloudy 75 23.9 68 20 79 79 ENE 7 11 30.12 1020 10 16 0.00 0.00
3:40 pm 15:40 Cloudy with Nearby Thunderstorms 74 23.3 68 20 82 82 ENE 13 20 30.12 1020 10 16 0.00 0.00
3:53 pm 15:53 Mostly Cloudy 76 24.4 68 20 77 77 NNE 7 11 30.11 1020 10 16 0.00 0.00
4:53 pm 16:53 Mostly Cloudy with Light Rain 75 23.9 69 20.6 82 82 Calm 30.11 1020 7 11 0.00 0.00
5:53 pm 17:53 Partly Cloudy 78 25.6 70 21.1 76 76 SE 6 9 30.09 1019 10 16 0.02 0.51
6:53 pm 18:53 Sunny 78 25.6 70 21.1 76 76 E 3 6 30.08 1019 10 16 0.00 0.00
7:53 pm 19:53 Partly Cloudy 78 25.6 71 21.7 79 79 Calm 30.08 1019 10 16 0.00 0.00
8:53 pm 20:53 Sunny 77 25 71 21.7 82 82 SE 3 6 30.07 1018 10 16 0.00 0.00
9:53 pm 21:53 Cloudy 77 25 71 21.7 82 82 S 7 11 30.06 1018 10 16 0.00 0.00
10:53 pm 22:53 Clear 76 24.4 71 21.7 85 85 SSE 6 9 30.06 1018 10 16 0.00 0.00
11:53 pm 23:53 Clear 76 24.4 71 21.7 85 85 S 6 9 30.06 1018 10 16 0.00 0.00

Powered by AerisWeather